Location: Wald
(31.7579°N, 86.6655°W)
Time: 23:42:25
(UTC+00:00)

BREEZE M DEB (TANK) - Pass Details

Date: 14 July 2020
Orbit: 326 x 16145 km, 49.4° (Epoch: 12 August)

Event Time Altitude Azimuth Distance (km) Brightness Sun altitude
Rises 02:25:56 0° 234° (SW) 2,316 5.7 -17.2°
Reaches altitude 10° 02:27:16 10° 236° (WSW) 1,674 5.0 -17.5°
Maximum altitude 02:30:29 75° 323° (NW) 830 3.3 -18.0°
Drops below altitude 10° 02:40:53 10° 49° (NE) 5,173 7.2 -19.6°
Sets 02:48:48 0° 51° (NE) 8,294 8.2 -20.8°
